When you browse on this site, cookies collect data to enhance your experience and personalize the content and advertising you see.
Visit our Privacy Policy to learn more. By continuing to use the site, you agree to this use of cookies and data.
  • In Latvia
  • List of Countries
  • For 7 days
  • Water Temperature
  • Satellite Maps
  • Weather Map
  • Weather Widgets
  • user-avatar
    Login

    Hourly Weather Berat

    Today, 24 July, Wednesday

    Time Temperature Precipitation Wind Pressure Humidity
    00:00 +25°C° 0 mm 2 mps 743 mmHg 64%
    01:00 +25°C° 0 mm 2 mps 743 mmHg 62%
    02:00 +24°C° 0 mm 2 mps 743 mmHg 62%
    03:00 +24°C° 0 mm 2 mps 743 mmHg 61%
    04:00 +24°C° 0 mm 2 mps 742 mmHg 61%
    05:00 +25°C° 0 mm 2 mps 742 mmHg 57%
    06:00 +27°C° 0 mm 2 mps 742 mmHg 53%
    07:00 +28°C° 0 mm 2 mps 743 mmHg 49%
    08:00 +30°C° 0 mm 2 mps 743 mmHg 44%
    09:00 +32°C° 0 mm 2 mps 743 mmHg 40%
    10:00 +34°C° 0 mm 2 mps 743 mmHg 35%
    11:00 +35°C° 0 mm 2 mps 743 mmHg 33%
    12:00 +36°C° 0 mm 2 mps 743 mmHg 32%
    13:00 +36°C° 0 mm 2 mps 743 mmHg 31%
    14:00 +36°C° 0 mm 2 mps 742 mmHg 32%
    15:00 +36°C° 0 mm 3 mps 742 mmHg 34%
    16:00 +35°C° 0 mm 3 mps 742 mmHg 36%
    17:00 +32°C° 0 mm 2 mps 742 mmHg 42%
    18:00 +30°C° 0 mm 2 mps 742 mmHg 47%
    19:00 +29°C° 0 mm 2 mps 742 mmHg 52%
    20:00 +28°C° 0 mm 2 mps 743 mmHg 54%
    21:00 +27°C° 0 mm 2 mps 743 mmHg 55%
    22:00 +26°C° 0 mm 2 mps 744 mmHg 57%
    23:00 +25°C° 0 mm 2 mps 744 mmHg 57%

    Tomorrow, 25 July, Thursday

    Time Temperature Precipitation Wind Pressure Humidity
    00:00 +25°C° 0 mm 2 mps 744 mmHg 57%
    01:00 +24°C° 0 mm 2 mps 743 mmHg 57%
    02:00 +24°C° 0 mm 2 mps 744 mmHg 57%
    03:00 +24°C° 0 mm 3 mps 744 mmHg 58%
    04:00 +22°C° 0 mm 3 mps 744 mmHg 59%
    05:00 +25°C° 0 mm 2 mps 744 mmHg 55%
    06:00 +26°C° 0 mm 2 mps 744 mmHg 52%
    07:00 +28°C° 0 mm 2 mps 745 mmHg 49%
    08:00 +30°C° 0 mm 1 mps 745 mmHg 44%
    09:00 +32°C° 0 mm 1 mps 745 mmHg 40%
    10:00 +33°C° 0 mm 1 mps 745 mmHg 35%
    11:00 +35°C° 0 mm 2 mps 745 mmHg 34%
    12:00 +36°C° 0 mm 2 mps 745 mmHg 33%
    13:00 +36°C° 0 mm 3 mps 745 mmHg 32%
    14:00 +35°C° 0 mm 3 mps 744 mmHg 37%
    15:00 +34°C° 0 mm 4 mps 744 mmHg 42%
    16:00 +33°C° 0 mm 4 mps 744 mmHg 46%
    17:00 +30°C° 0 mm 3 mps 744 mmHg 52%
    18:00 +29°C° 0 mm 2 mps 744 mmHg 58%
    19:00 +27°C° 0 mm 1 mps 744 mmHg 64%
    20:00 +26°C° 0 mm 1 mps 744 mmHg 65%
    21:00 +26°C° 0 mm 1 mps 744 mmHg 66%
    22:00 +25°C° 0 mm 1 mps 744 mmHg 67%
    23:00 +25°C° 0 mm 1 mps 744 mmHg 66%

    Day after tomorrow, 26 July, Friday

    Time Temperature Precipitation Wind Pressure Humidity
    00:00 +25°C° 0 mm 1 mps 744 mmHg 65%
    01:00 +25°C° 0 mm 1 mps 744 mmHg 64%
    02:00 +24°C° 0 mm 1 mps 744 mmHg 64%
    03:00 +24°C° 0 mm 1 mps 744 mmHg 64%
    04:00 +24°C° 0 mm 1 mps 743 mmHg 64%
    05:00 +25°C° 0 mm 1 mps 743 mmHg 60%
    06:00 +27°C° 0 mm 1 mps 743 mmHg 55%
    07:00 +27°C° 0 mm 0 mps 743 mmHg 51%
    08:00 +30°C° 0 mm 1 mps 743 mmHg 47%
    09:00 +32°C° 0 mm 1 mps 743 mmHg 43%
    10:00 +34°C° 0 mm 2 mps 743 mmHg 39%
    11:00 +35°C° 0 mm 3 mps 743 mmHg 38%
    12:00 +35°C° 0 mm 3 mps 742 mmHg 37%
    13:00 +36°C° 0 mm 4 mps 742 mmHg 37%
    14:00 +35°C° 0 mm 4 mps 742 mmHg 39%
    15:00 +34°C° 0 mm 4 mps 741 mmHg 42%
    16:00 +33°C° 0 mm 4 mps 741 mmHg 45%
    17:00 +31°C° 0 mm 3 mps 741 mmHg 50%
    18:00 +29°C° 0 mm 2 mps 741 mmHg 55%
    19:00 +27°C° 0 mm 1 mps 740 mmHg 60%
    20:00 +26°C° 0 mm 1 mps 741 mmHg 62%
    21:00 +26°C° 0 mm 1 mps 741 mmHg 64%
    22:00 +25°C° 0 mm 1 mps 741 mmHg 66%
    23:00 +22°C° 0 mm 0 mps 740 mmHg 67%

    27 July, Saturday

    Time Temperature Precipitation Wind Pressure Humidity
    00:00 +22°C° 0 mm 0 mps 740 mmHg 68%
    01:00 +22°C° 0 mm 0 mps 740 mmHg 70%
    02:00 +23°C° 0 mm 1 mps 740 mmHg 70%
    03:00 +23°C° 0 mm 1 mps 739 mmHg 70%
    04:00 +23°C° 0 mm 1 mps 739 mmHg 70%
    05:00 +25°C° 0 mm 1 mps 739 mmHg 65%
    06:00 +27°C° 0 mm 1 mps 739 mmHg 59%
    07:00 +28°C° 0 mm 1 mps 739 mmHg 54%
    08:00 +30°C° 0 mm 1 mps 739 mmHg 48%
    09:00 +32°C° 0 mm 1 mps 739 mmHg 42%
    10:00 +34°C° 0 mm 2 mps 739 mmHg 36%
    11:00 +35°C° 0 mm 3 mps 739 mmHg 35%
    12:00 +36°C° 0 mm 3 mps 739 mmHg 34%
    13:00 +36°C° 0 mm 4 mps 738 mmHg 32%
    14:00 +36°C° 0 mm 4 mps 738 mmHg 34%
    15:00 +35°C° 0 mm 4 mps 738 mmHg 36%
    16:00 +34°C° 0 mm 3 mps 737 mmHg 38%
    17:00 +31°C° 0 mm 3 mps 737 mmHg 43%
    18:00 +29°C° 0 mm 2 mps 737 mmHg 49%
    19:00 +27°C° 0 mm 1 mps 737 mmHg 54%
    20:00 +27°C° 0 mm 1 mps 737 mmHg 56%
    21:00 +26°C° 0 mm 1 mps 737 mmHg 57%
    22:00 +25°C° 0 mm 1 mps 737 mmHg 59%
    23:00 +25°C° 0 mm 1 mps 737 mmHg 60%

    28 July, Sunday

    Time Temperature Precipitation Wind Pressure Humidity
    00:00 +25°C° 0 mm 1 mps 737 mmHg 61%
    01:00 +25°C° 0 mm 1 mps 737 mmHg 62%
    02:00 +24°C° 0 mm 2 mps 737 mmHg 63%
    03:00 +24°C° 0 mm 2 mps 737 mmHg 64%
    04:00 +24°C° 0 mm 2 mps 736 mmHg 64%
    05:00 +26°C° 0 mm 2 mps 737 mmHg 60%
    06:00 +27°C° 0 mm 1 mps 737 mmHg 55%
    07:00 +29°C° 0 mm 1 mps 737 mmHg 50%
    08:00 +30°C° 0 mm 1 mps 737 mmHg 44%
    09:00 +32°C° 0 mm 2 mps 737 mmHg 38%
    10:00 +35°C° 0 mm 2 mps 737 mmHg 31%
    11:00 +35°C° 0 mm 2 mps 737 mmHg 32%
    12:00 +35°C° 0 mm 2 mps 736 mmHg 33%
    13:00 +35°C° 0 mm 2 mps 736 mmHg 34%
    14:00 +35°C° 0 mm 2 mps 736 mmHg 35%
    15:00 +35°C° 0 mm 2 mps 735 mmHg 35%
    16:00 +35°C° 0 mm 2 mps 735 mmHg 36%
    17:00 +32°C° 0 mm 1 mps 735 mmHg 43%
    18:00 +30°C° 0 mm 1 mps 735 mmHg 50%
    19:00 +28°C° 0 mm 1 mps 735 mmHg 57%
    20:00 +27°C° 0 mm 1 mps 735 mmHg 59%
    21:00 +26°C° 0 mm 1 mps 735 mmHg 60%
    22:00 +25°C° 0 mm 1 mps 736 mmHg 62%
    23:00 +25°C° 0 mm 2 mps 736 mmHg 65%

    29 July, Monday

    Time Temperature Precipitation Wind Pressure Humidity
    00:00 +24°C° 0 mm 2 mps 736 mmHg 67%
    01:00 +24°C° 0 mm 2 mps 736 mmHg 70%
    02:00 +23°C° 0 mm 2 mps 736 mmHg 72%
    03:00 +23°C° 0 mm 1 mps 735 mmHg 75%
    04:00 +22°C° 0 mm 1 mps 735 mmHg 77%
    05:00 +24°C° 0 mm 1 mps 735 mmHg 71%
    06:00 +25°C° 0 mm 1 mps 735 mmHg 66%
    07:00 +27°C° 0 mm 1 mps 736 mmHg 60%
    08:00 +28°C° 0 mm 1 mps 736 mmHg 56%
    09:00 +30°C° 0 mm 2 mps 736 mmHg 52%
    10:00 +31°C° 0 mm 2 mps 736 mmHg 48%
    11:00 +31°C° 0.9 mm 3 mps 736 mmHg 52%
    12:00 +30°C° 0.9 mm 4 mps 735 mmHg 56%
    13:00 +30°C° 0.9 mm 4 mps 735 mmHg 60%
    14:00 +29°C° 1.3 mm 4 mps 735 mmHg 60%
    15:00 +29°C° 1.3 mm 3 mps 735 mmHg 60%
    16:00 +28°C° 1.3 mm 2 mps 735 mmHg 61%
    17:00 +27°C° 0.1 mm 2 mps 735 mmHg 64%
    18:00 +26°C° 0.1 mm 1 mps 735 mmHg 67%
    19:00 +25°C° 0.1 mm 1 mps 736 mmHg 70%
    20:00 +24°C° 0.1 mm 1 mps 736 mmHg 74%
    21:00 +24°C° 0.1 mm 1 mps 736 mmHg 77%
    22:00 +23°C° 0.1 mm 1 mps 737 mmHg 81%
    23:00 +23°C° 0 mm 1 mps 737 mmHg 81%
    Show more